{"data":{"norad_id":59386,"epoch":"2026-09-21T18:44:36.683232Z","epoch_age_seconds":51660,"freshness":"FRESH","line1":"1 59386U 24062N   26264.78098013 -.00011439  00000+0 -32753-3 0  9993","line2":"2 59386  53.1599  63.4442 0001325  75.4644 284.6506 15.34437527139677","mean_motion":15.34437527,"eccentricity":0.0001325,"inclination_deg":53.1599,"raan_deg":63.4442,"arg_perigee_deg":75.4644,"mean_anomaly_deg":284.6506,"bstar":-0.00032753,"rev_number":13967,"period_min":93.845462891889,"perigee_km":461.68530777453,"apogee_km":463.49810088117,"semimajor_km":6840.7287043279,"source":"CELESTRAK","updated_at":"2026-09-22T09:00:48.910140Z"}}